7 * 24
多渠道服务支持
STARLINK-37058(NORAD编号68195)是美国SpaceX公司星链(Starlink)低轨互联网星座中的一颗卫星,属于星链二代卫星组网的组成部分。 星链项目旨在构建全球覆盖的高速低轨卫星互联网,该卫星运行在近地轨道(约530公里高度区间),采用Ku/Ka频段工作,为全球用户提供高速互联网接入服务。作为SpaceX大规模星座部署的一员,它参与构建星链全球通信网络,支持包括消费级互联网服务等多元应用,是星链实现全球互联布局的重要单元。
美国
(US)
| 数据来源 | 国际轨道数据 |
| 星历时间: | 2026-05-24T03:05:41+0800 1天前 查看轨道信息 |
| 半长轴: | 6840.843km |
| 偏心率: | 0.0001122 |
| 轨道倾角: | 53.158° |
| 近地点辐角 | 60.452° |
| 升交点赤经 | 277.072° |
| 平近点角 | 299.659° |
| 近地点: | 461.938km |
| 远地点: | 463.474km |
| 周期: | 93.848分钟 |
| 每日圈数: | 15.343992 |